Showing default

ELEKTRO-L 3, 44903

Orbit data source: Space-Track

ELEKTRO-L 3, 44903 is a Commonwealth of Independent States-origin payload satellite in GEO that was launched on Tue, 24 Dec 2019 UTC via a PROTON-M/DM-3 launch vehicle from the Tyuratam Missile And Space Complex (TTMTR). Payload-class satellites include a variety of spacecraft equipped with specific instruments for various scientific and technological missions. These include communications satellites like Starlink; space stations such as the ISS; scientific satellites like the Hubble; Earth observation satellites from companies like Planet Labs, Umbra, and HawkEye 360; GPS; miniature CubeSats for education and research; and military/defense satellites.

Not visible in the next 10 days
Identifier
44903, 2019-095A
Orbit
GEO
Last TLE update
10 hours ago
Origin
Manufacturer
Lavochkin
Mission
Operational Civil Weather
Bus & Motor
NAVIGATOR, Unknown motor
Mass
2,283 kg wet, 1,589 kg dry
Launch date (UTC)
2019-12-24 (5 years ago)
Launch vehicle
PROTON-M/DM-3
Launch site
Tyuratam Missile And Space Complex (TTMTR)
Object type
Payload
Rocket body
Debris
Shape & HBR
Box + 1 Pan + 1 Ant, Unknown HBR
Radar Cross Section
11.105 m², Large (>1 m²)

Expand to show TLE details & history

TLE from 10 hours ago
0 ELEKTRO-L 3
1 44903U 19095A   25129.44003075 -.00000089  00000-0  00000+0 0  9993
2 44903   0.0648  50.6662 0000969 356.7360  54.5227  1.00271735 19640
Epoch: 2025-05-09T10:33Z
Definitive object data (Epoch: 2025-05-09T10:33:38.656Z)
Latitude
0.04439°
Longitude
76.02201°
Altitude
35,783.713 km
Speed
3.075 km/s
True Right ascension
06h 47m 43s
True Declination
0° 02' 40"
Sunlit
Object was in daylight at TLE epoch
Visualization TLE readout
Latitude
-0.03624°
Longitude
-130.96501°
Altitude
35,789.746 km
Speed
3.074 km/s
Apparent Right ascension
16h 59m 18s
Apparent Declination
-4° 58' 32"
Sunlit
Object is in daylight
Visualization observer readout
Local Sidereal Time
04:55:16
Azimuth
358.248° N
Elevation
-55.048°
Doppler factor
1
Orbital elements
Apogee altitude
35,791.765 km
Perigee altitude
35,783.593 km
Semi-major axis
42,165.816 km
Eccentricity
0.0000969
Inclination
0.0648°
RAAN
50.6662°
Arg. of periapsis
356.736°
True anomaly
54.53174°
Mean anomaly
54.5227°
Eccentric anomaly
54.52722°
Mean motion
0.25067 °/min
BSTAR
Unknown
Orbital period
1436.15 mins
Loading historical data...
44903 neighbors
Loading maneuver chart data...
Loading SW <> Apogee altitude chart data...
Loading historical data...
Loading historical data...
Loading historical data...
Loading historical data...
Loading historical data...
Loading historical data...
Loading historical data...
Other satellites on launch #95 in the year 2019 (2019-12-24 UTC)

ELEKTRO-L 3 Visibility forecast

Observer location: undefined°, undefined°

ELEKTRO-L 3 is not visible in the next 10 days
Span
Click to sort rows by Start time (UTC) header in descending order
Start Az.
Max El. time (UTC)
Max El. Az.
Max El.
End time (UTC)
End Az.
|